Location: ??
(34.7707°N, 135.6540°E)
Time: 03:56:19
(UTC+00:00)

Cosmos 1818 - Pass Details

Date: 09 April 2020
Orbit: 778 x 796 km, 65.0° (Epoch: 05 June)

Event Time Altitude Azimuth Distance (km) Brightness Sun altitude
Rises 18:16:55 0° 336° (NNW) 3,302 6.9 -26.7°
Reaches altitude 10° 18:19:25 10° 341° (NNW) 2,369 6.2 -26.3°
Maximum altitude 18:24:45 53° 58° (ENE) 967 4.3 -25.3°
Drops below altitude 10° 18:30:02 10° 135° (SE) 2,352 6.2 -24.4°
Sets 18:32:29 0° 140° (SE) 3,275 6.9 -23.9°
